NOAA 16 DEB, 41249

Orbit data source: Space-Track

NOAA 16 DEB, 41249 is space debris in SSO originally from a launch on Thu, 21 Sep 2000 UTC launched from the Air Force Western Test Range (AFWTR). Debris objects in space refer to the collection of defunct objects orbiting the Earth. Examples of debris include non-operational satellites, rocket bodies, and fragments generated from explosions, collisions, or faulty payload assembly.

Loading next visibility...
Identifier
41249, 2000-055EZ
Orbit
SSO
Country
Flag of USUS
Related business
Manufacturer
Unknown
Mission
Spacecraft
Bus & Motor
Unknown
Mass
Unknown
Launch date (UTC)
2000-09-21 (26 years ago)
Launch vehicle
Unknown
Launch site
Air Force Western Test Range (AFWTR)
Object type
Payload
Rocket body
Debris
Shape & HBR
Unknown shape, 0.1 m
Radar Cross Section
Medium (>0.1 m² and <1 m²)

Expand to show TLE details & history
Last TLE update: 12 hours ago

TLE from 12 hours ago
0 NOAA 16 DEB
1 41249U 00055EZ  26257.92075473  .00006708  00000-0  13549-2 0  9994
2 41249  98.9497 137.6295 0029788 110.2374 250.2031 14.61477339558919
Epoch: 2026-09-14T22:05Z
TLE epoch observation values (Epoch: 2026-09-14T22:05:53.208Z)
Latitude
-0.00008°
Longitude
172.26369°
Altitude
698.557 km
Speed
7.503 km/s
True Right ascension
09h 10m 31s
True Declination
0° 00' 00"
Sunlit
Object was in daylight at epoch
Visualization orbit readout
Latitude
Unknown
Longitude
Unknown
Altitude
Unknown
Speed
Unknown
Apparent Right ascension
Unknown
Apparent Declination
Unknown
Sunlit
N/A
Visualization observer readout
Local Sidereal Time
03:11:02
Azimuth
Unknown
Elevation
Unknown
Doppler factor
Unknown
Orbital elements
Apogee altitude
706.564 km
Perigee altitude
664.482 km
Semi-major axis
7,063.66 km
Eccentricity
0.00298
Inclination
98.9497°
RAAN
137.6295°
Arg. of periapsis
110.2374°
True anomaly
249.88233°
Mean anomaly
250.2031°
Eccentric anomaly
250.04268°
Mean motion
3.65594 °/min
Orbital period
98.47 mins
BSTAR
0.0013549
Loading maneuver chart data...
Computing Atmospheric mass density...
Loading historical data...
Loading historical data...
Loading historical data...
Loading historical data...
Loading historical data...
Loading historical data...
Loading historical data...

Documentation

Showing up to 5 results
|